Vorticity
9 8 6 4 3 3 4 7 9 11 12 11 10 10 9 7 6 6 5 5 4 4 4 3 4 3 4 5 6 8 10 10 11 12 9 7 6 7 6 5 6 5 5 7 8 6 4 5 5 5 5 4 3 4 5 6 4 2 3 0 1 6 4 5 13 13 6 8 15 7 -3 4 7 5 5 3 5 6 4 4 5 4 5 8 10 10 11 8
9 9 9 8 6 4 3 3 4 7 10 11 12 11 11 9 8 8 7 6 5 5 5 4 3 4 3 3 4 5 8 10 10 12 11 10 8 5 7 8 6 5 5 5 6 6 5 5 4 4 5 4 3 3 4 7 6 3 3 1 -1 4 6 5 9 10 4 6 12 6 2 8 7 5 8 5 3 5 7 9 6 3 5 8 8 9 11 9
9 8 9 9 9 8 6 4 3 3 5 8 11 12 11 11 10 10 9 8 7 6 5 5 4 5 4 3 3 3 5 7 9 11 12 11 10 7 6 8 7 5 5 5 5 6 5 5 4 5 5 4 4 4 3 4 6 6 5 4 -1 -1 6 7 8 12 9 8 8 4 7 10 6 4 6 6 5 3 6 9 7 5 6 8 7 9 11 8
10 9 9 8 9 9 8 7 5 3 3 4 7 10 11 11 11 11 11 10 9 8 7 6 5 5 6 5 4 3 3 4 6 9 11 12 12 10 7 7 7 5 5 6 8 9 10 9 6 6 8 5 5 4 3 4 4 7 7 5 -0 -3 1 5 10 11 9 16 13 4 9 8 5 5 2 2 5 5 5 6 7 8 7 8 7 8 10 8
12 11 10 9 8 8 9 9 8 6 4 3 3 5 8 10 11 11 11 12 11 10 9 8 7 6 6 7 6 4 4 4 4 5 9 11 12 12 11 8 7 5 4 6 7 10 12 12 8 8 9 8 6 4 4 4 3 6 8 5 3 -0 -4 3 14 13 13 22 13 4 9 6 5 6 2 3 5 6 6 5 7 8 8 9 10 9 8 8
13 12 10 10 9 7 7 8 9 9 7 5 3 3 5 7 10 10 10 11 12 12 11 10 9 7 6 8 7 6 6 5 4 5 5 8 11 13 13 10 7 5 4 5 7 8 9 10 11 10 9 8 7 5 4 4 3 3 5 4 6 3 -4 -1 7 12 17 16 7 5 8 5 6 5 1 4 7 6 5 5 6 8 8 8 11 12 9 7
14 13 12 11 9 8 7 7 8 10 9 8 5 4 3 4 6 9 9 9 10 11 12 12 10 9 8 8 9 8 8 6 5 5 5 5 8 11 14 12 9 7 4 4 7 8 6 7 12 12 8 7 6 5 4 3 3 2 1 2 7 5 0 -3 -3 10 18 10 4 4 6 7 6 4 3 3 5 6 5 5 6 8 9 7 8 12 11 7
13 13 14 14 12 10 9 7 8 9 11 10 9 6 4 4 4 6 8 8 9 9 10 12 11 10 9 9 10 10 9 8 6 6 6 5 5 8 12 13 10 8 6 4 4 6 5 4 9 11 8 5 4 5 5 4 5 5 3 2 6 4 3 -1 -3 11 16 12 12 6 8 12 4 3 5 4 4 5 5 4 6 7 8 8 6 9 12 8
12 12 15 16 15 13 12 10 8 8 10 12 11 9 7 6 4 4 6 7 7 8 8 10 11 10 9 9 9 11 11 10 9 8 7 6 5 5 9 13 12 10 8 5 4 4 4 3 5 8 7 4 4 4 5 5 5 6 5 2 3 2 4 2 1 8 7 12 22 11 4 6 4 6 4 5 6 5 6 4 5 6 7 10 7 8 13 11
12 11 14 17 15 14 15 15 12 8 9 11 12 11 10 9 6 5 6 6 6 6 7 7 9 10 9 9 8 10 11 11 11 10 8 8 7 6 6 10 13 13 11 7 5 3 2 2 2 5 6 5 5 4 3 5 4 5 6 3 2 2 4 3 2 7 3 4 9 5 8 10 10 9 4 6 6 5 7 4 5 6 7 9 9 8 11 12
13 11 14 16 15 13 14 17 19 14 9 9 12 13 12 12 9 6 6 6 7 6 6 6 6 7 8 8 7 8 10 10 11 11 10 10 9 7 5 6 10 13 12 9 6 2 0 0 2 5 6 7 9 6 2 4 4 4 7 5 4 4 4 3 4 7 7 7 3 5 18 19 12 7 5 9 8 6 7 4 6 6 6 8 9 10 10 11
14 12 13 16 13 10 11 14 18 21 16 9 10 13 14 14 12 9 7 5 6 8 7 6 6 6 6 7 6 7 8 8 10 11 11 11 10 9 7 6 7 10 13 10 6 3 2 1 2 4 6 8 12 10 5 6 5 2 5 6 5 6 5 4 6 7 8 11 8 7 12 7 4 5 4 7 7 7 5 4 6 5 6 8 7 10 11 11
15 12 13 16 14 8 6 7 10 17 22 16 10 11 13 14 13 11 10 7 6 7 8 8 7 6 6 6 6 7 6 6 9 10 11 12 11 11 10 8 6 7 10 13 10 5 5 3 1 1 3 8 12 12 10 11 8 3 4 5 2 5 7 4 4 7 8 6 4 4 5 1 2 4 2 3 4 6 6 5 5 4 7 8 7 9 10 11
15 13 12 15 15 9 4 4 5 8 17 21 17 12 11 13 14 13 12 10 7 6 7 8 8 8 7 6 6 7 6 5 6 7 9 12 12 11 10 9 8 6 7 12 15 11 7 4 2 1 1 3 8 13 14 14 12 6 6 5 2 3 5 5 5 9 10 8 6 6 5 4 4 4 2 2 3 4 5 4 4 4 6 8 8 8 10 11
15 14 12 13 15 12 7 5 6 5 9 18 22 15 11 12 13 14 13 12 10 7 6 7 8 8 8 8 6 6 6 6 6 5 6 9 11 11 11 10 10 8 7 9 13 14 11 7 4 3 2 1 4 8 11 15 15 11 8 5 4 4 4 8 9 7 4 2 5 8 8 5 4 5 3 2 2 2 3 4 5 5 4 7 9 7 8 11
15 14 12 12 15 14 9 7 7 8 7 14 22 20 14 12 12 14 14 12 12 10 7 7 8 9 8 8 8 7 6 6 6 6 6 7 8 11 12 12 12 10 8 7 10 13 13 11 7 5 3 1 1 3 6 12 15 14 11 7 5 4 3 7 8 5 3 2 4 5 5 6 5 6 5 4 3 2 2 3 4 5 5 6 8 7 7 10
15 14 12 11 13 15 12 8 7 9 8 11 20 22 15 12 11 13 14 13 13 12 10 8 7 8 8 7 7 8 8 6 6 6 7 7 7 8 9 11 12 11 10 7 8 11 14 13 10 8 7 4 1 2 3 7 11 13 13 10 7 5 2 5 8 6 7 10 10 5 2 4 5 4 4 4 3 3 4 2 2 4 5 5 7 8 6 7
17 15 13 10 10 13 13 10 8 8 9 10 18 21 15 11 11 11 13 14 14 12 11 9 8 7 9 9 7 7 8 8 7 7 7 8 8 6 6 8 10 11 12 10 8 8 11 13 12 10 9 7 4 3 1 3 6 8 11 12 12 9 3 3 7 8 6 6 7 8 8 8 5 2 2 2 3 3 5 3 2 4 4 4 5 6 6 6
18 17 15 12 10 11 13 13 11 10 11 11 15 19 15 10 10 11 11 14 15 14 12 12 11 9 7 9 9 6 6 7 7 7 7 8 9 8 6 6 8 10 12 13 11 8 8 10 12 12 11 10 8 5 2 0 2 4 7 10 13 14 9 4 7 9 8 5 4 6 7 6 4 3 1 1 1 2 5 3 2 4 3 3 5 5 6 5
19 19 17 16 14 12 14 16 15 13 13 13 13 17 16 9 9 10 11 12 14 14 14 12 12 11 9 8 9 8 6 6 5 6 6 7 9 9 7 6 5 6 9 12 14 12 8 6 10 13 13 11 10 8 4 1 -0 1 3 4 9 12 11 8 7 8 9 7 7 6 3 3 4 4 3 2 -0 -1 4 4 1 3 3 3 4 5 6 6
17 18 17 17 16 14 16 17 18 17 16 15 13 15 16 11 9 10 11 12 13 13 14 13 12 12 12 9 9 10 8 7 6 4 4 6 8 9 9 8 6 5 5 8 11 14 13 9 8 9 11 11 11 11 7 3 1 -0 0 1 4 7 8 10 8 7 6 4 6 6 3 3 2 2 4 5 2 -2 -2 0 -0 1 4 4 4 4 5 7
16 16 15 16 16 15 15 16 17 18 16 15 14 15 17 13 10 11 10 10 12 13 13 14 13 12 13 11 11 11 10 9 8 7 4 3 6 8 8 8 9 8 5 5 6 9 15 15 11 7 7 9 11 12 9 6 4 1 0 0 2 3 3 7 7 5 4 2 2 4 5 4 1 -1 2 3 4 2 -2 -2 -1 -2 1 5 4 2 4 7
16 16 14 15 17 16 16 16 17 17 16 16 15 16 18 16 13 13 11 10 11 13 12 12 12 13 13 12 12 11 11 11 9 9 7 4 4 6 7 6 6 9 8 7 6 5 10 15 14 10 7 7 8 11 10 9 7 4 3 1 0 2 1 3 6 6 4 3 2 2 3 4 3 2 3 3 3 5 3 2 2 -3 -2 5 5 3 5 6
14 16 15 15 18 19 18 18 18 17 17 17 15 15 17 18 16 14 13 12 11 10 12 13 13 14 14 14 14 11 11 12 10 10 10 8 6 5 6 5 4 6 7 8 9 7 7 9 10 11 11 8 7 9 10 10 9 7 7 4 1 0 1 1 4 6 8 9 7 3 1 1 3 5 6 4 3 6 9 9 8 1 -2 4 6 4 7 8
14 15 15 16 19 20 19 20 20 19 19 18 16 14 15 17 17 15 12 15 16 11 11 15 14 14 14 13 14 13 11 11 10 10 10 9 8 6 6 7 5 5 6 6 6 8 8 7 6 8 11 12 9 8 8 9 10 9 9 10 6 1 0 1 1 4 9 11 8 6 8 6 4 6 6 5 7 10 10 10 9 4 2 4 7 7 7 9
15 14 15 17 19 18 20 23 23 22 20 18 16 15 14 13 14 15 11 12 18 15 11 12 11 11 12 10 12 13 12 12 11 9 9 9 9 8 8 7 5 4 5 5 3 3 5 7 6 6 8 11 12 10 8 7 9 10 10 13 13 8 3 1 -1 1 5 6 4 5 13 16 10 7 5 6 11 10 6 9 10 6 3 3 7 8 6 8
17 16 14 16 18 16 20 24 23 22 20 17 15 15 15 12 12 15 12 12 16 16 13 12 11 10 11 11 11 13 12 12 13 10 8 8 8 8 8 8 8 5 5 5 5 4 3 5 7 8 7 8 11 12 11 9 7 9 11 11 13 13 10 5 0 0 1 1 1 0 8 16 14 12 9 8 11 8 6 13 17 14 6 3 9 9 4 5
20 19 16 15 16 16 19 23 22 21 21 18 15 15 16 14 13 14 15 15 16 17 15 12 11 11 12 12 11 13 12 10 12 12 11 9 8 7 6 7 7 6 5 6 7 7 6 5 4 5 7 7 9 10 12 13 10 8 9 9 8 10 12 8 4 3 2 0 1 -1 1 7 13 16 12 9 14 15 13 15 17 17 10 4 8 9 5 6
21 22 18 15 16 15 18 21 18 19 21 18 15 14 14 14 14 13 15 15 14 17 17 12 11 11 12 13 10 10 11 10 10 11 11 10 9 9 8 7 7 6 7 6 5 6 7 6 4 3 4 6 8 7 8 13 14 9 7 8 8 8 9 9 6 5 3 1 2 1 -0 1 9 14 9 8 18 24 23 19 13 13 11 7 8 9 8 8
21 25 22 16 15 14 16 18 14 14 18 18 17 15 13 14 15 14 17 16 11 12 15 12 12 11 11 12 11 7 7 9 10 10 12 12 11 10 9 10 9 8 8 8 6 6 6 7 7 6 3 4 7 7 7 10 12 11 9 8 9 9 9 9 8 5 3 3 3 2 -0 -0 5 8 4 3 8 14 18 15 11 11 10 9 8 11 13 13
20 28 26 18 15 14 16 16 10 9 13 16 18 17 14 14 14 13 16 17 11 10 13 13 13 11 9 9 9 8 7 8 9 9 11 13 13 13 11 10 10 8 9 9 7 7 6 7 8 8 6 4 5 7 8 9 9 10 11 9 8 9 8 8 9 6 2 4 5 3 -0 0 3 3 6 6 -0 5 13 9 8 11 8 6 5 6 10 11
20 29 29 20 15 14 17 17 12 8 9 12 15 17 17 13 13 14 15 15 12 11 14 12 10 9 9 9 9 11 12 11 10 10 10 10 11 13 14 13 12 10 10 11 10 8 8 8 9 10 9 7 5 5 7 9 9 8 9 10 9 8 7 7 10 6 3 5 7 4 2 3 2 1 12 16 4 3 10 4 1 1 1 5 6 5 7 6
21 28 29 22 14 13 16 17 16 12 11 11 13 20 19 13 13 14 15 17 12 9 11 10 7 7 9 12 12 12 13 13 12 12 12 11 10 11 12 13 12 11 12 13 12 11 11 10 11 11 12 11 8 6 6 8 9 9 8 8 9 8 6 6 9 8 5 5 6 5 5 6 4 4 9 9 5 8 10 5 2 0 -0 2 1 3 6 4
22 25 27 22 14 13 15 15 16 15 13 12 15 23 20 12 13 15 17 21 14 7 10 10 8 8 8 10 10 11 12 11 11 11 12 13 12 11 11 12 12 10 11 12 11 11 11 11 11 11 11 11 9 8 6 6 8 9 9 8 8 9 9 7 8 10 8 5 5 6 5 4 5 8 4 -4 1 11 8 5 7 8 8 5 1 4 7 6
22 23 26 21 14 15 16 15 15 15 14 14 18 24 21 12 14 17 19 19 14 10 11 10 9 8 8 7 7 7 8 8 9 9 11 12 11 11 11 11 12 10 11 11 11 11 11 12 11 9 10 11 11 10 8 7 8 9 9 9 8 7 9 10 8 9 9 8 7 5 3 3 4 9 7 -3 1 9 6 4 7 8 9 7 5 9 11 9
20 23 24 20 16 16 16 14 14 15 14 13 15 18 19 15 13 16 19 18 13 11 12 12 11 8 7 7 6 7 6 6 7 7 7 9 9 9 10 10 10 10 11 13 13 12 11 13 13 10 10 10 11 12 11 9 8 8 9 10 9 8 9 10 8 8 10 9 7 5 2 1 1 6 10 6 5 10 10 5 2 3 5 4 3 10 14 11
17 22 24 20 16 17 17 15 17 18 14 11 9 10 13 14 11 11 15 14 9 7 8 10 11 9 9 9 9 9 9 8 8 7 8 9 9 9 8 8 8 8 9 11 13 14 13 14 14 13 13 11 10 11 12 11 10 10 10 9 10 10 9 9 8 7 9 8 5 4 3 1 -0 4 9 7 6 11 11 2 -4 0 4 3 4 8 12 14
12 17 23 21 17 17 17 17 20 21 16 9 7 9 9 10 9 9 11 11 7 7 8 7 8 9 10 11 11 12 12 12 11 10 9 9 10 11 10 9 9 8 8 8 10 12 12 14 15 14 15 14 12 12 12 12 12 11 11 9 10 12 10 9 9 7 8 9 6 3 4 3 1 2 5 5 6 9 8 -1 -6 -2 1 1 6 8 8 11
8 12 18 20 18 15 15 16 17 19 16 9 8 10 9 8 10 10 11 11 9 10 11 9 9 10 10 11 12 12 13 14 14 15 14 12 11 13 13 12 12 10 10 9 9 10 11 12 13 14 15 14 12 12 12 12 12 12 12 11 10 11 11 11 10 7 7 9 7 4 4 4 1 1 5 8 7 6 3 -4 -8 -4 1 1 2 8 10 9
7 9 13 16 15 14 17 18 16 15 16 11 10 15 13 8 9 9 8 9 8 10 11 10 11 12 11 12 13 14 14 14 13 14 16 16 15 15 17 17 16 16 16 13 12 12 11 11 12 11 13 15 14 12 11 11 12 11 12 13 11 9 10 12 11 9 6 6 7 7 4 3 3 3 4 7 10 7 0 -7 -13 -11 -2 2 -3 2 12 11
11 9 12 12 10 12 18 19 15 15 17 14 10 14 13 9 8 8 7 8 8 11 12 11 11 12 12 12 13 16 16 15 15 15 15 16 15 14 15 16 15 15 16 16 16 15 12 10 11 10 10 13 13 12 11 12 12 12 12 13 13 11 9 10 11 12 9 5 5 8 6 4 5 4 3 5 9 9 5 -0 -4 -6 -0 4 -4 -5 8 10
17 12 13 13 9 12 15 14 13 15 17 17 13 11 12 12 11 9 10 13 13 14 14 13 13 13 12 9 6 7 8 10 15 16 16 16 14 11 10 10 9 7 8 11 13 15 14 11 10 10 9 9 10 10 11 11 11 13 12 12 12 13 12 10 10 11 12 9 5 6 6 5 6 4 3 4 6 8 7 6 6 6 7 6 -2 -6 2 4
21 18 20 16 8 8 10 8 10 12 13 16 16 14 14 15 13 10 12 16 18 17 14 14 14 13 13 10 5 3 5 9 13 14 14 14 13 12 11 10 9 7 7 8 8 10 12 12 11 10 9 8 9 9 10 10 11 12 12 12 12 12 12 12 11 10 11 12 9 6 5 4 6 6 3 1 3 6 8 6 5 7 8 7 -1 -6 -2 2
20 23 27 22 9 4 6 5 6 8 9 11 13 13 13 13 14 14 14 15 17 16 14 13 13 13 15 14 12 10 10 12 15 14 11 9 8 9 9 9 11 11 9 10 8 8 8 9 10 10 9 8 8 8 7 7 9 10 11 13 13 13 12 11 12 10 9 11 12 10 8 5 4 6 5 3 2 3 6 8 7 6 7 7 3 -2 -2 1
15 21 26 25 15 6 3 3 3 4 6 7 8 10 9 8 11 13 13 12 13 14 14 13 12 11 12 15 15 15 14 14 16 14 10 8 8 9 8 8 10 11 11 11 11 12 11 8 8 8 7 7 8 10 10 8 7 8 10 11 12 13 13 12 11 12 10 9 10 11 11 10 8 6 7 7 6 5 5 8 8 7 6 6 6 3 -0 2
11 15 20 23 20 13 7 6 7 7 8 8 7 8 6 4 5 7 8 8 8 10 11 12 12 10 8 9 10 11 11 12 14 14 12 11 10 11 11 9 9 10 12 12 12 13 13 12 12 10 8 7 6 8 11 11 8 7 7 8 9 10 11 12 11 11 11 10 10 9 8 11 12 8 7 9 9 8 9 10 11 9 7 4 4 4 1 1
8 11 16 18 20 20 16 13 14 14 13 13 11 11 9 6 4 4 5 5 5 6 6 8 11 12 10 9 8 7 7 9 10 10 10 11 11 11 11 9 8 10 12 13 13 13 14 14 15 15 13 11 8 7 9 11 10 8 7 7 8 8 9 11 11 10 11 11 11 10 7 10 13 9 6 8 9 9 10 13 16 15 11 6 2 4 5 3
6 7 11 14 17 19 19 18 19 17 16 16 16 16 15 13 12 10 10 9 9 10 8 5 5 8 9 10 11 9 8 8 8 8 7 8 10 9 8 8 8 8 8 9 10 11 12 12 13 14 15 14 12 10 10 11 11 10 9 9 9 9 8 9 10 10 11 10 11 11 9 9 11 8 6 7 8 8 9 13 21 22 18 14 7 4 6 6
7 6 7 10 12 14 15 16 17 18 16 14 14 14 15 15 16 16 15 14 13 13 12 10 8 7 7 8 10 10 10 10 9 9 9 9 10 8 7 8 9 7 6 6 7 8 8 9 11 12 13 13 13 12 10 11 13 12 10 9 9 9 9 9 10 10 11 11 10 11 11 11 12 9 7 8 7 8 9 12 22 24 18 16 15 9 6 7
6 6 6 7 8 10 11 11 12 14 14 13 14 14 15 15 17 19 20 19 18 17 16 14 12 12 10 9 9 9 10 9 8 9 9 9 10 10 8 9 10 9 9 8 8 9 7 7 9 9 9 10 11 12 11 11 12 12 12 10 9 9 10 10 10 10 11 11 10 10 10 11 13 11 9 9 8 8 9 11 20 20 13 12 16 14 10 11
5 5 6 6 6 7 9 8 8 9 10 11 12 12 11 11 12 15 18 20 21 24 26 25 22 20 17 15 13 10 9 9 8 8 8 7 8 8 9 10 10 10 10 9 10 11 8 7 10 10 9 9 8 9 10 10 11 12 12 11 10 9 9 10 11 11 11 11 10 10 10 9 10 10 10 10 10 9 9 10 15 16 10 6 10 13 11 11
7 7 7 5 5 6 7 8 7 6 7 7 8 8 7 7 7 9 13 14 14 15 19 23 26 28 28 26 24 21 17 15 13 11 10 8 7 7 6 7 8 8 9 8 9 11 9 7 10 12 11 12 11 8 8 9 9 9 10 10 9 9 8 9 9 9 12 14 12 11 12 11 10 8 8 9 10 11 12 12 12 11 8 6 5 8 9 9
Height
5847 5846 5845 5845 5844 5844 5844 5844 5844 5843 5844 5844 5844 5844 5844 5844 5844 5844 5845 5846 5847 5847 5847 5848 5850 5850 5851 5852 5853 5853 5855 5856 5857 5858 5859 5861 5862 5863 5864 5865 5867 5868 5870 5871 5872 5874 5875 5876 5877 5878 5879 5880 5881 5883 5884 5886 5887 5887 5887 5888 5888 5888 5889 5889 5890 5891 5892 5892 5893 5894 5894 5895 5896 5896 5897 5898 5898 5897 5898 5898 5898 5899 5900 5900 5899 5899 5900 5899
5844 5843 5843 5842 5842 5841 5841 5841 5841 5841 5841 5841 5841 5841 5842 5842 5842 5842 5842 5843 5844 5844 5845 5846 5847 5848 5849 5850 5851 5852 5853 5854 5855 5856 5857 5859 5860 5861 5862 5864 5865 5867 5868 5870 5871 5872 5873 5874 5875 5876 5878 5879 5880 5882 5883 5885 5886 5887 5888 5888 5888 5889 5889 5890 5890 5890 5891 5893 5893 5894 5895 5896 5897 5898 5898 5898 5899 5899 5899 5899 5899 5900 5900 5900 5899 5899 5901 5901
5841 5840 5840 5839 5839 5838 5838 5838 5838 5838 5838 5838 5838 5839 5839 5839 5839 5839 5840 5840 5841 5842 5842 5843 5844 5846 5847 5848 5849 5850 5851 5852 5853 5854 5855 5857 5858 5859 5861 5863 5864 5865 5867 5868 5869 5871 5872 5873 5874 5875 5877 5878 5879 5881 5882 5884 5885 5887 5888 5888 5889 5889 5889 5890 5891 5891 5891 5892 5893 5894 5895 5896 5898 5898 5898 5899 5899 5899 5900 5900 5900 5901 5901 5901 5900 5900 5902 5902
5838 5837 5837 5836 5835 5835 5834 5834 5834 5834 5835 5835 5835 5836 5836 5836 5837 5837 5837 5837 5838 5839 5839 5840 5841 5843 5844 5846 5847 5848 5849 5850 5851 5852 5854 5855 5856 5857 5859 5861 5862 5864 5865 5867 5869 5870 5872 5873 5874 5875 5876 5877 5878 5880 5881 5883 5884 5886 5887 5888 5889 5889 5889 5890 5891 5891 5891 5892 5893 5895 5895 5896 5898 5898 5898 5899 5899 5900 5900 5900 5900 5902 5902 5902 5900 5901 5902 5903
5835 5834 5833 5832 5832 5831 5831 5830 5830 5831 5831 5832 5832 5833 5833 5834 5834 5834 5834 5834 5835 5836 5837 5837 5838 5839 5841 5843 5844 5846 5847 5848 5849 5851 5852 5853 5854 5856 5857 5859 5861 5862 5864 5866 5868 5870 5871 5872 5873 5875 5876 5877 5878 5879 5880 5881 5883 5885 5886 5887 5889 5889 5890 5890 5891 5892 5892 5892 5893 5895 5895 5896 5897 5898 5899 5900 5900 5900 5900 5900 5901 5902 5903 5902 5901 5901 5903 5904
5832 5831 5830 5829 5828 5827 5827 5827 5826 5827 5827 5828 5828 5829 5830 5831 5831 5831 5831 5832 5833 5833 5834 5835 5835 5836 5838 5840 5842 5843 5844 5846 5847 5848 5850 5851 5853 5854 5856 5858 5859 5860 5862 5865 5867 5868 5869 5870 5872 5874 5875 5876 5876 5877 5878 5880 5882 5884 5885 5887 5888 5889 5890 5891 5892 5893 5893 5893 5894 5895 5895 5896 5897 5899 5900 5900 5900 5901 5901 5901 5901 5902 5903 5903 5902 5902 5904 5904
5828 5827 5826 5825 5824 5823 5823 5822 5822 5822 5823 5823 5824 5825 5826 5827 5828 5828 5828 5829 5830 5830 5831 5832 5833 5834 5835 5836 5838 5840 5842 5843 5845 5846 5848 5849 5851 5852 5854 5855 5857 5859 5861 5863 5865 5867 5868 5869 5870 5872 5873 5873 5874 5876 5877 5879 5881 5883 5885 5886 5888 5889 5890 5891 5892 5893 5894 5894 5895 5895 5895 5897 5898 5899 5900 5900 5901 5901 5902 5902 5902 5903 5903 5904 5904 5904 5905 5905
5823 5823 5822 5821 5820 5819 5819 5818 5818 5818 5818 5819 5820 5821 5822 5823 5824 5825 5825 5826 5827 5827 5828 5829 5830 5832 5832 5833 5835 5837 5839 5840 5842 5843 5845 5847 5849 5850 5852 5853 5855 5857 5859 5861 5863 5864 5866 5867 5869 5870 5871 5871 5872 5874 5876 5878 5880 5882 5884 5885 5887 5889 5890 5892 5893 5894 5894 5894 5895 5895 5896 5897 5898 5899 5900 5901 5901 5902 5902 5902 5902 5903 5904 5904 5905 5906 5906 5907
5819 5819 5818 5817 5816 5815 5814 5814 5814 5814 5814 5815 5816 5817 5818 5819 5820 5821 5821 5822 5823 5824 5825 5827 5828 5829 5830 5831 5832 5834 5836 5837 5839 5841 5843 5845 5846 5848 5850 5852 5853 5855 5858 5860 5861 5863 5864 5866 5867 5868 5869 5869 5870 5872 5874 5876 5879 5882 5883 5884 5886 5888 5890 5891 5893 5895 5895 5895 5895 5896 5896 5897 5898 5899 5900 5901 5902 5903 5903 5903 5903 5904 5904 5905 5906 5907 5908 5908
5815 5814 5813 5812 5812 5811 5810 5810 5809 5809 5809 5810 5811 5813 5814 5814 5816 5817 5818 5819 5820 5821 5822 5824 5825 5826 5827 5828 5829 5831 5833 5835 5837 5838 5840 5842 5844 5846 5848 5850 5851 5853 5855 5857 5859 5861 5862 5863 5864 5865 5866 5867 5869 5871 5873 5875 5879 5881 5882 5884 5886 5888 5890 5891 5893 5895 5896 5896 5896 5897 5897 5897 5898 5899 5900 5901 5902 5903 5903 5904 5904 5905 5905 5905 5906 5908 5908 5909
5812 5810 5809 5808 5807 5806 5806 5805 5805 5804 5804 5805 5807 5809 5809 5809 5810 5812 5814 5815 5817 5818 5819 5820 5822 5824 5825 5826 5827 5828 5830 5832 5834 5836 5838 5840 5842 5844 5846 5848 5849 5851 5852 5854 5856 5857 5859 5860 5862 5864 5865 5867 5869 5871 5872 5874 5877 5879 5881 5883 5886 5887 5889 5890 5892 5894 5895 5896 5896 5897 5897 5897 5898 5899 5900 5901 5902 5903 5904 5904 5905 5905 5906 5906 5907 5909 5909 5909
5808 5806 5805 5804 5803 5802 5802 5801 5800 5800 5800 5801 5803 5804 5804 5804 5805 5808 5809 5811 5813 5814 5815 5817 5819 5821 5822 5823 5824 5826 5827 5829 5831 5833 5835 5837 5839 5841 5843 5845 5847 5848 5849 5850 5853 5855 5857 5860 5862 5863 5865 5867 5869 5870 5871 5874 5876 5878 5880 5883 5885 5887 5888 5889 5891 5893 5894 5895 5896 5896 5896 5897 5898 5899 5901 5901 5902 5903 5904 5905 5905 5906 5907 5907 5908 5909 5910 5910
5804 5802 5801 5799 5798 5798 5797 5797 5796 5795 5795 5796 5798 5799 5799 5799 5801 5803 5805 5807 5808 5810 5812 5814 5816 5817 5819 5820 5821 5823 5824 5827 5829 5831 5832 5834 5836 5838 5840 5843 5845 5846 5847 5848 5851 5853 5856 5858 5860 5862 5864 5867 5868 5869 5871 5873 5875 5876 5879 5882 5884 5886 5887 5889 5890 5892 5893 5894 5895 5895 5896 5896 5898 5899 5900 5901 5902 5903 5904 5904 5905 5906 5907 5908 5909 5910 5910 5910
5799 5798 5796 5795 5794 5793 5793 5792 5792 5791 5791 5791 5793 5794 5793 5795 5797 5798 5800 5802 5804 5806 5808 5810 5812 5814 5816 5817 5818 5820 5822 5824 5827 5829 5830 5831 5834 5835 5837 5839 5842 5843 5845 5847 5850 5852 5854 5856 5857 5860 5863 5865 5867 5869 5870 5872 5874 5875 5878 5881 5883 5884 5886 5887 5889 5890 5892 5893 5894 5895 5895 5896 5897 5898 5899 5901 5902 5903 5904 5904 5905 5906 5907 5909 5909 5910 5910 5910
5795 5794 5792 5790 5789 5788 5788 5788 5787 5787 5787 5787 5788 5788 5789 5791 5792 5794 5795 5797 5799 5802 5804 5806 5808 5810 5812 5814 5815 5817 5819 5821 5824 5826 5828 5829 5831 5832 5834 5836 5839 5841 5843 5846 5848 5850 5852 5854 5856 5859 5861 5863 5866 5868 5869 5871 5873 5874 5876 5879 5881 5883 5884 5886 5886 5888 5890 5891 5892 5894 5895 5896 5897 5898 5899 5900 5901 5902 5903 5904 5905 5906 5907 5909 5910 5910 5911 5911
5791 5790 5788 5786 5784 5784 5783 5783 5782 5783 5783 5783 5783 5783 5784 5786 5788 5789 5791 5792 5794 5797 5800 5802 5804 5806 5808 5810 5812 5814 5816 5818 5821 5823 5825 5827 5829 5830 5832 5834 5836 5838 5841 5844 5846 5848 5850 5853 5855 5857 5859 5862 5865 5866 5868 5870 5871 5873 5874 5876 5879 5881 5883 5884 5885 5886 5889 5890 5891 5892 5893 5895 5896 5898 5898 5899 5900 5901 5903 5904 5905 5906 5907 5908 5909 5910 5911 5911
5787 5785 5783 5781 5780 5779 5779 5778 5777 5778 5778 5778 5778 5779 5780 5782 5783 5785 5786 5788 5790 5793 5795 5798 5800 5802 5804 5807 5809 5811 5813 5815 5818 5820 5823 5824 5827 5828 5830 5831 5833 5836 5839 5841 5844 5846 5849 5851 5853 5855 5857 5860 5863 5865 5867 5868 5870 5871 5872 5874 5877 5879 5882 5883 5883 5886 5888 5890 5890 5891 5892 5893 5895 5896 5898 5898 5900 5901 5902 5903 5905 5906 5907 5908 5908 5909 5910 5911
5782 5780 5778 5776 5775 5775 5774 5773 5772 5773 5773 5773 5774 5774 5775 5777 5779 5780 5782 5784 5786 5788 5791 5793 5796 5798 5800 5803 5806 5808 5810 5812 5815 5817 5820 5822 5824 5826 5827 5829 5831 5834 5837 5839 5842 5844 5846 5848 5850 5853 5855 5858 5861 5863 5865 5867 5868 5869 5870 5872 5875 5878 5880 5881 5882 5884 5886 5887 5889 5891 5891 5892 5893 5895 5896 5897 5898 5900 5902 5903 5904 5905 5906 5907 5908 5908 5910 5911
5778 5776 5773 5771 5770 5770 5769 5768 5767 5768 5768 5768 5769 5770 5771 5773 5774 5776 5778 5779 5781 5784 5786 5789 5791 5793 5796 5799 5802 5804 5807 5809 5811 5814 5817 5819 5821 5823 5825 5827 5829 5832 5835 5837 5840 5842 5844 5846 5848 5851 5854 5856 5859 5861 5863 5864 5866 5867 5869 5871 5873 5876 5878 5880 5881 5884 5885 5886 5888 5889 5890 5891 5892 5893 5895 5896 5897 5898 5900 5902 5903 5904 5905 5906 5907 5908 5909 5910
5773 5771 5769 5767 5766 5765 5764 5763 5763 5763 5763 5763 5764 5765 5767 5769 5770 5772 5774 5775 5777 5780 5782 5784 5787 5789 5792 5795 5798 5801 5804 5806 5808 5810 5813 5816 5818 5820 5822 5825 5827 5830 5833 5835 5838 5840 5842 5844 5847 5850 5852 5853 5856 5858 5860 5861 5863 5866 5867 5869 5871 5874 5877 5878 5880 5883 5884 5886 5887 5888 5889 5890 5890 5891 5893 5894 5896 5897 5898 5900 5901 5902 5904 5905 5906 5907 5908 5910
5769 5767 5764 5762 5761 5760 5759 5759 5758 5758 5758 5758 5759 5761 5763 5765 5767 5768 5770 5771 5773 5776 5778 5780 5783 5785 5788 5791 5794 5797 5800 5803 5805 5807 5810 5813 5815 5818 5820 5822 5825 5827 5830 5833 5835 5838 5840 5843 5846 5847 5848 5850 5852 5855 5857 5858 5861 5863 5865 5867 5869 5872 5875 5877 5878 5880 5882 5884 5885 5886 5888 5889 5889 5890 5892 5894 5895 5896 5897 5898 5899 5900 5903 5904 5906 5907 5908 5909
5764 5763 5760 5758 5757 5756 5755 5755 5754 5754 5754 5754 5755 5757 5759 5761 5763 5765 5766 5767 5769 5772 5774 5776 5779 5781 5784 5787 5790 5793 5796 5799 5802 5804 5807 5809 5812 5815 5817 5820 5822 5825 5828 5831 5833 5836 5839 5841 5843 5843 5844 5847 5850 5852 5854 5856 5858 5861 5863 5865 5867 5870 5873 5874 5876 5877 5879 5881 5882 5883 5885 5887 5888 5890 5892 5893 5894 5895 5896 5897 5897 5899 5901 5903 5905 5906 5907 5909
5761 5759 5756 5753 5753 5752 5751 5751 5751 5750 5750 5751 5752 5754 5756 5758 5759 5761 5763 5764 5766 5768 5770 5773 5776 5778 5781 5783 5786 5789 5792 5795 5798 5801 5803 5806 5809 5812 5814 5817 5819 5822 5825 5828 5831 5834 5837 5839 5839 5840 5842 5845 5847 5849 5851 5853 5855 5858 5861 5863 5866 5868 5870 5871 5873 5875 5877 5879 5880 5882 5883 5885 5887 5890 5892 5893 5894 5895 5895 5896 5897 5898 5900 5902 5904 5905 5907 5908
5757 5755 5752 5750 5749 5748 5747 5747 5747 5747 5747 5748 5749 5751 5752 5754 5755 5757 5759 5761 5763 5764 5767 5770 5773 5775 5778 5780 5782 5785 5788 5792 5795 5797 5800 5802 5805 5808 5811 5814 5816 5819 5823 5826 5828 5832 5835 5835 5835 5837 5840 5842 5845 5847 5849 5851 5854 5856 5859 5862 5864 5866 5867 5869 5871 5873 5875 5877 5879 5881 5882 5884 5887 5890 5892 5892 5893 5895 5896 5897 5897 5897 5898 5901 5904 5905 5907 5907
5754 5752 5749 5747 5746 5745 5743 5743 5743 5744 5744 5745 5746 5748 5749 5751 5752 5754 5756 5758 5760 5762 5764 5767 5769 5772 5774 5777 5779 5781 5784 5788 5791 5793 5796 5798 5801 5804 5808 5811 5814 5816 5820 5823 5826 5829 5831 5831 5832 5835 5837 5840 5842 5845 5847 5849 5852 5854 5857 5861 5863 5863 5865 5867 5868 5870 5873 5876 5877 5878 5881 5884 5886 5888 5890 5891 5893 5895 5896 5897 5897 5897 5898 5900 5903 5904 5906 5907
5751 5749 5746 5744 5743 5742 5741 5740 5740 5740 5741 5742 5743 5745 5746 5747 5749 5751 5753 5755 5757 5759 5761 5763 5766 5768 5770 5773 5776 5778 5781 5784 5786 5789 5792 5795 5798 5801 5804 5807 5810 5813 5817 5820 5823 5826 5826 5828 5831 5833 5835 5838 5840 5842 5845 5847 5849 5852 5856 5859 5860 5861 5862 5864 5865 5868 5871 5873 5873 5875 5879 5882 5884 5886 5887 5889 5891 5893 5894 5896 5897 5897 5897 5899 5902 5903 5905 5906
5749 5746 5744 5742 5740 5739 5738 5737 5737 5737 5738 5739 5740 5742 5743 5745 5747 5749 5751 5753 5755 5756 5758 5761 5763 5765 5768 5771 5773 5776 5778 5779 5782 5786 5790 5793 5795 5798 5801 5804 5807 5810 5814 5817 5820 5822 5823 5826 5829 5831 5833 5836 5839 5841 5843 5845 5848 5851 5855 5856 5857 5858 5860 5862 5863 5865 5869 5870 5870 5874 5878 5880 5882 5885 5886 5888 5890 5892 5894 5895 5896 5897 5897 5898 5900 5902 5904 5905
5746 5744 5741 5739 5737 5737 5736 5735 5735 5735 5736 5737 5738 5740 5741 5743 5745 5747 5748 5751 5752 5754 5756 5758 5760 5763 5766 5768 5770 5772 5774 5776 5780 5783 5787 5790 5792 5795 5798 5800 5804 5807 5811 5814 5817 5818 5820 5824 5826 5828 5831 5834 5837 5840 5841 5843 5847 5849 5851 5852 5853 5855 5857 5858 5859 5862 5865 5867 5869 5873 5876 5879 5882 5884 5885 5888 5890 5893 5895 5896 5896 5896 5896 5897 5899 5901 5902 5904
5744 5741 5738 5736 5735 5735 5734 5734 5734 5734 5734 5735 5736 5738 5740 5741 5743 5745 5746 5748 5750 5752 5754 5755 5758 5760 5762 5765 5767 5769 5771 5774 5778 5781 5784 5787 5790 5792 5795 5798 5801 5805 5808 5810 5812 5814 5817 5820 5823 5826 5829 5832 5834 5836 5838 5842 5844 5845 5847 5849 5851 5852 5854 5855 5856 5859 5861 5863 5867 5871 5874 5877 5880 5883 5886 5889 5892 5894 5895 5895 5894 5894 5895 5896 5898 5900 5901 5902
5741 5738 5736 5734 5734 5733 5733 5733 5733 5733 5734 5734 5735 5737 5738 5740 5741 5743 5745 5747 5748 5750 5751 5753 5755 5758 5760 5762 5764 5766 5769 5773 5776 5778 5781 5784 5787 5789 5792 5795 5799 5802 5804 5806 5808 5810 5813 5817 5820 5823 5826 5829 5831 5833 5836 5840 5841 5842 5844 5847 5849 5850 5852 5853 5854 5856 5857 5859 5865 5869 5872 5875 5878 5883 5886 5888 5891 5892 5892 5892 5892 5892 5893 5894 5896 5898 5899 5901
5739 5736 5734 5732 5732 5732 5732 5732 5732 5733 5733 5734 5735 5736 5737 5739 5740 5742 5744 5746 5747 5748 5750 5751 5753 5755 5757 5759 5761 5764 5768 5771 5773 5776 5779 5781 5784 5787 5789 5792 5796 5799 5801 5802 5804 5806 5809 5813 5816 5819 5823 5825 5828 5830 5833 5836 5838 5840 5842 5844 5847 5848 5850 5851 5851 5853 5853 5857 5864 5868 5869 5872 5877 5882 5883 5884 5885 5886 5887 5888 5888 5889 5890 5891 5893 5895 5897 5899
5738 5735 5732 5731 5731 5731 5731 5731 5732 5732 5733 5734 5734 5735 5737 5738 5740 5742 5743 5744 5746 5748 5749 5750 5751 5753 5755 5757 5760 5764 5767 5768 5771 5774 5776 5779 5781 5784 5787 5789 5792 5796 5797 5799 5801 5802 5805 5809 5812 5816 5819 5821 5824 5826 5829 5833 5835 5836 5838 5841 5844 5845 5847 5848 5849 5849 5850 5855 5862 5866 5867 5870 5874 5878 5878 5879 5881 5881 5882 5883 5883 5884 5885 5887 5890 5892 5894 5896
5737 5734 5731 5730 5730 5731 5731 5731 5731 5732 5733 5733 5734 5735 5736 5738 5739 5741 5743 5744 5746 5747 5748 5749 5751 5753 5754 5757 5760 5762 5764 5766 5768 5771 5774 5777 5779 5781 5784 5786 5789 5793 5794 5796 5798 5799 5802 5806 5809 5812 5815 5817 5820 5822 5826 5829 5831 5833 5836 5838 5840 5842 5844 5846 5847 5847 5849 5854 5859 5863 5865 5867 5871 5874 5876 5877 5879 5879 5880 5880 5881 5881 5882 5883 5885 5888 5891 5894
5736 5733 5731 5730 5730 5730 5730 5730 5731 5731 5732 5733 5734 5735 5736 5738 5739 5741 5743 5744 5746 5747 5748 5750 5751 5753 5754 5756 5758 5760 5762 5764 5766 5769 5772 5774 5776 5778 5781 5783 5786 5789 5791 5793 5794 5796 5799 5802 5804 5807 5810 5813 5816 5819 5822 5825 5827 5831 5833 5835 5838 5840 5842 5844 5846 5847 5848 5852 5856 5859 5862 5864 5868 5871 5874 5876 5877 5878 5879 5880 5881 5882 5882 5883 5884 5886 5889 5892
5736 5733 5731 5731 5731 5731 5730 5730 5731 5731 5731 5732 5733 5735 5736 5738 5739 5741 5743 5744 5745 5747 5748 5750 5751 5753 5754 5756 5758 5760 5762 5763 5765 5767 5769 5771 5774 5776 5778 5780 5783 5786 5788 5790 5791 5793 5796 5797 5800 5804 5806 5809 5812 5815 5818 5821 5824 5827 5830 5832 5835 5837 5841 5843 5844 5846 5847 5850 5853 5856 5858 5861 5864 5868 5871 5873 5875 5876 5878 5879 5880 5881 5882 5884 5886 5887 5888 5889
5737 5734 5732 5732 5732 5731 5731 5731 5731 5731 5732 5733 5733 5735 5736 5738 5739 5741 5742 5744 5745 5747 5748 5750 5751 5752 5753 5755 5757 5759 5761 5763 5764 5766 5768 5770 5772 5774 5776 5778 5781 5783 5785 5787 5788 5790 5792 5794 5797 5800 5803 5805 5809 5811 5814 5817 5820 5823 5826 5828 5831 5836 5839 5840 5841 5843 5844 5847 5849 5852 5855 5857 5861 5865 5867 5869 5872 5874 5876 5877 5878 5879 5881 5883 5886 5887 5888 5888
5738 5735 5734 5733 5733 5732 5732 5732 5732 5732 5732 5733 5734 5735 5737 5738 5739 5741 5742 5743 5745 5746 5748 5749 5750 5752 5753 5754 5756 5758 5760 5761 5763 5764 5766 5768 5770 5772 5774 5776 5778 5780 5783 5784 5786 5787 5789 5791 5793 5796 5799 5802 5805 5808 5810 5813 5816 5819 5822 5825 5829 5832 5835 5836 5838 5840 5841 5844 5846 5848 5850 5853 5857 5861 5863 5866 5869 5872 5873 5875 5876 5878 5880 5882 5884 5886 5888 5888
5739 5737 5736 5735 5734 5733 5733 5733 5733 5733 5733 5733 5734 5735 5737 5738 5740 5741 5742 5743 5744 5746 5747 5749 5750 5751 5752 5754 5755 5757 5758 5760 5762 5763 5765 5766 5768 5770 5772 5773 5775 5778 5780 5782 5783 5784 5786 5788 5790 5793 5795 5798 5801 5804 5807 5810 5812 5815 5818 5822 5826 5828 5830 5833 5835 5836 5838 5841 5841 5843 5846 5849 5852 5857 5860 5864 5867 5868 5870 5872 5874 5876 5878 5881 5883 5885 5888 5889
5740 5738 5737 5736 5735 5735 5734 5733 5733 5733 5734 5734 5735 5736 5737 5738 5739 5741 5742 5743 5744 5746 5747 5748 5749 5750 5751 5753 5754 5756 5757 5759 5760 5762 5764 5765 5767 5768 5770 5772 5773 5775 5778 5780 5781 5782 5784 5786 5787 5790 5792 5794 5797 5800 5803 5806 5808 5811 5815 5818 5821 5823 5826 5829 5832 5833 5836 5837 5838 5840 5843 5844 5847 5852 5857 5860 5862 5865 5867 5869 5872 5874 5877 5879 5881 5883 5886 5888
5741 5740 5739 5738 5737 5736 5735 5735 5734 5734 5734 5735 5735 5736 5737 5738 5739 5740 5741 5743 5744 5745 5746 5747 5748 5749 5750 5751 5752 5754 5756 5757 5759 5760 5762 5763 5765 5767 5768 5770 5772 5773 5775 5777 5779 5780 5781 5783 5785 5787 5789 5791 5793 5796 5799 5802 5805 5808 5811 5813 5816 5819 5822 5825 5828 5830 5833 5834 5835 5837 5839 5840 5843 5848 5853 5856 5859 5862 5864 5866 5869 5871 5874 5877 5879 5882 5884 5886
5742 5741 5740 5739 5738 5737 5737 5736 5735 5735 5735 5735 5735 5736 5737 5738 5739 5740 5741 5741 5742 5743 5744 5745 5746 5748 5748 5749 5750 5752 5753 5755 5757 5758 5760 5762 5763 5765 5766 5768 5769 5771 5773 5774 5776 5778 5779 5780 5782 5784 5786 5788 5790 5792 5796 5799 5802 5805 5807 5809 5812 5815 5818 5822 5824 5827 5829 5831 5832 5833 5835 5837 5839 5843 5849 5853 5856 5859 5861 5863 5866 5869 5872 5875 5877 5880 5882 5884
5743 5742 5741 5740 5739 5739 5738 5738 5737 5736 5736 5736 5736 5737 5737 5738 5739 5739 5740 5740 5741 5742 5742 5743 5744 5746 5747 5748 5749 5750 5751 5753 5754 5756 5757 5759 5761 5763 5764 5765 5767 5768 5770 5771 5773 5775 5776 5777 5779 5781 5782 5785 5787 5789 5792 5795 5798 5801 5803 5806 5809 5812 5815 5818 5820 5823 5826 5828 5829 5831 5832 5834 5837 5839 5844 5849 5852 5855 5858 5860 5863 5866 5870 5873 5875 5878 5880 5882
5745 5743 5742 5741 5741 5740 5739 5739 5738 5738 5737 5737 5737 5737 5738 5738 5739 5739 5740 5740 5740 5741 5741 5742 5743 5744 5745 5746 5747 5748 5749 5751 5752 5753 5755 5756 5758 5760 5761 5762 5764 5765 5766 5768 5769 5771 5773 5775 5776 5778 5779 5781 5784 5786 5788 5791 5794 5797 5800 5802 5805 5808 5811 5814 5816 5819 5822 5824 5825 5828 5829 5830 5833 5835 5839 5843 5847 5851 5854 5857 5860 5863 5866 5870 5872 5875 5877 5879
5746 5745 5743 5742 5741 5741 5740 5740 5739 5739 5739 5738 5738 5738 5738 5739 5739 5739 5739 5740 5740 5740 5741 5741 5742 5743 5744 5745 5746 5747 5748 5749 5750 5751 5752 5754 5755 5757 5758 5759 5760 5762 5763 5765 5766 5769 5771 5772 5774 5775 5777 5778 5780 5782 5784 5787 5790 5793 5795 5798 5801 5804 5807 5810 5812 5815 5817 5819 5822 5824 5826 5827 5829 5831 5835 5838 5842 5847 5850 5853 5856 5859 5863 5866 5869 5871 5874 5876
5748 5746 5744 5743 5742 5742 5742 5741 5740 5740 5740 5739 5739 5739 5739 5739 5739 5739 5740 5740 5740 5740 5741 5741 5741 5742 5742 5743 5744 5745 5746 5747 5748 5749 5750 5752 5753 5754 5756 5757 5758 5759 5760 5762 5764 5766 5768 5770 5771 5773 5774 5775 5777 5779 5782 5784 5786 5789 5791 5794 5797 5800 5802 5805 5808 5810 5813 5815 5818 5821 5823 5824 5825 5828 5831 5833 5837 5842 5846 5849 5852 5855 5859 5861 5864 5867 5869 5872
5749 5747 5746 5744 5744 5743 5743 5742 5741 5741 5740 5740 5740 5740 5740 5739 5739 5739 5740 5740 5740 5740 5741 5741 5741 5742 5742 5743 5743 5744 5745 5746 5747 5748 5749 5750 5751 5752 5754 5755 5756 5757 5758 5759 5761 5763 5765 5767 5768 5770 5771 5773 5774 5777 5779 5781 5783 5785 5787 5790 5793 5795 5798 5800 5803 5805 5808 5811 5814 5817 5820 5821 5821 5823 5826 5829 5832 5836 5841 5845 5849 5852 5854 5856 5859 5862 5864 5868
5750 5748 5747 5746 5744 5744 5743 5743 5742 5741 5740 5740 5739 5739 5739 5739 5739 5739 5739 5739 5740 5740 5740 5741 5741 5741 5742 5742 5742 5743 5744 5744 5745 5746 5747 5748 5749 5750 5752 5753 5754 5755 5756 5758 5759 5761 5763 5764 5766 5767 5769 5770 5772 5774 5776 5778 5780 5781 5784 5786 5788 5791 5794 5796 5798 5801 5804 5807 5810 5812 5815 5816 5816 5818 5822 5824 5827 5831 5836 5841 5845 5847 5850 5852 5854 5856 5859 5863
5751 5750 5748 5747 5745 5744 5744 5743 5742 5741 5741 5740 5739 5739 5739 5739 5739 5739 5739 5739 5739 5739 5739 5740 5740 5740 5741 5741 5742 5742 5742 5743 5743 5744 5745 5746 5747 5748 5749 5751 5752 5753 5755 5756 5757 5759 5760 5761 5763 5765 5766 5768 5769 5771 5773 5775 5777 5779 5780 5782 5784 5787 5789 5792 5794 5797 5799 5803 5805 5806 5809 5811 5812 5814 5817 5820 5822 5826 5830 5835 5840 5842 5845 5847 5849 5851 5854 5858
5752 5750 5749 5748 5746 5745 5744 5744 5743 5742 5741 5740 5740 5739 5739 5738 5738 5738 5738 5737 5737 5737 5738 5738 5738 5739 5739 5740 5741 5741 5741 5741 5741 5742 5743 5744 5745 5746 5747 5748 5749 5750 5752 5753 5754 5756 5757 5758 5760 5762 5764 5766 5767 5768 5770 5772 5774 5775 5777 5778 5780 5782 5785 5787 5790 5792 5795 5798 5800 5801 5803 5806 5808 5810 5813 5815 5818 5821 5825 5830 5834 5837 5839 5842 5844 5846 5849 5853
5752 5751 5750 5748 5747 5746 5745 5744 5743 5742 5742 5741 5740 5739 5738 5738 5738 5737 5737 5736 5736 5736 5736 5736 5736 5737 5737 5738 5738 5739 5739 5739 5740 5740 5741 5741 5742 5743 5744 5745 5746 5748 5749 5750 5751 5753 5754 5755 5757 5759 5762 5763 5764 5765 5767 5768 5770 5772 5773 5774 5776 5778 5780 5783 5786 5788 5790 5793 5794 5795 5798 5801 5804 5806 5808 5811 5814 5816 5820 5825 5829 5832 5834 5838 5840 5842 5844 5847
5752 5751 5750 5749 5747 5746 5746 5745 5744 5743 5742 5741 5741 5740 5739 5738 5738 5737 5736 5736 5735 5734 5734 5734 5734 5735 5735 5735 5736 5736 5737 5737 5737 5738 5738 5739 5739 5740 5741 5742 5743 5744 5746 5747 5748 5749 5751 5752 5753 5756 5758 5760 5761 5762 5763 5765 5766 5767 5769 5771 5772 5774 5776 5778 5780 5782 5784 5787 5788 5790 5793 5796 5799 5801 5803 5806 5809 5812 5816 5820 5824 5827 5830 5833 5836 5838 5840 5842
5752 5751 5750 5749 5747 5746 5746 5745 5744 5743 5743 5742 5741 5740 5740 5739 5738 5738 5737 5736 5735 5734 5734 5733 5733 5733 5733 5733 5733 5733 5734 5734 5734 5735 5736 5736 5736 5737 5737 5738 5740 5741 5742 5743 5744 5746 5747 5748 5750 5752 5753 5755 5757 5759 5760 5761 5762 5763 5765 5766 5768 5770 5771 5773 5775 5776 5779 5781 5782 5785 5789 5792 5794 5795 5798 5801 5804 5807 5810 5814 5818 5822 5825 5828 5831 5834 5835 5837